Date,TemperatureHighF,TemperatureAvgF,TemperatureLowF,DewpointHighF,DewpointAvgF,DewpointLowF,HumidityHigh,HumidityAvg,HumidityLow,PressureMaxIn,PressureMinIn,WindSpeedMaxMPH,WindSpeedAvgMPH,GustSpeedMaxMPH,PrecipitationSumIn
2013-5-1,50,38,22,-100,-100,-100,0,0,100,0.00,40.00,0,-999,0,0.00
2013-5-2,59,47,32,-100,-100,-100,0,0,100,0.00,40.00,0,-999,0,0.00
2013-5-3,57,49,40,-100,-100,-100,0,0,100,0.00,40.00,0,-999,0,0.00
2013-5-4,59,48,37,-100,-100,-100,0,0,100,0.00,40.00,0,-999,0,0.00
2013-5-5,63,49,34,-100,-100,-100,0,0,100,0.00,40.00,0,-999,0,0.00
2013-5-6,69,54,40,-100,-100,-100,0,0,100,0.00,40.00,0,-999,0,0.01
2013-5-7,70,55,43,-100,-100,-100,0,0,100,0.00,40.00,0,-999,0,0.00
2013-5-8,71,56,42,-100,-100,-100,0,0,100,0.00,40.00,0,-999,0,0.00
2013-5-9,73,57,45,-100,-100,-100,0,0,100,0.00,40.00,0,-999,0,0.00
2013-5-10,75,58,45,-100,-100,-100,0,0,100,0.00,40.00,0,-999,0,0.00
2013-5-11,74,60,50,-100,-100,-100,0,0,100,0.00,40.00,0,-999,0,0.00
2013-5-12,73,58,49,-100,-100,-100,0,0,100,0.00,40.00,0,-999,0,0.00
2013-5-13,67,51,43,-100,-100,-100,0,0,100,0.00,40.00,0,-999,0,0.01
2013-5-14,58,46,34,-100,-100,-100,0,0,100,0.00,40.00,0,-999,0,0.01
2013-5-15,59,46,33,-100,-100,-100,0,0,100,0.00,40.00,0,-999,0,0.00
2013-5-16,56,47,37,-100,-100,-100,0,0,100,0.00,40.00,0,-999,0,0.01
2013-5-17,46,42,39,-100,-100,-100,0,0,100,0.00,40.00,0,-999,0,0.01
2013-5-18,50,41,33,-100,-100,-100,0,0,100,0.00,40.00,0,-999,0,0.01
2013-5-19,50,42,37,-100,-100,-100,0,0,100,0.00,40.00,0,-999,0,0.01
2013-5-20,61,49,35,-100,-100,-100,0,0,100,0.00,40.00,0,-999,0,0.00
2013-5-21,58,45,34,-100,-100,-100,0,0,100,0.00,40.00,0,-999,0,0.01
2013-5-22,39,33,29,-100,-100,-100,0,0,100,0.00,40.00,0,-999,0,0.01
2013-5-23,47,36,27,-100,-100,-100,0,0,100,0.00,40.00,0,-999,0,0.01
2013-5-24,46,38,33,-100,-100,-100,0,0,100,0.00,40.00,0,-999,0,1.15
2013-5-25,52,42,32,-100,-100,-100,0,0,100,0.00,40.00,0,-999,0,1.14
2013-5-26,48,42,36,-100,-100,-100,0,0,100,0.00,40.00,0,-999,0,0.01
2013-5-27,50,43,34,-100,-100,-100,0,0,100,0.00,40.00,0,-999,0,0.01
2013-5-28,52,43,38,-100,-100,-100,0,0,100,0.00,40.00,0,-999,0,0.01
2013-5-29,48,42,38,-100,-100,-100,0,0,100,0.00,40.00,0,-999,0,0.02
2013-5-30,48,41,35,-100,-100,-100,0,0,100,0.00,40.00,0,-999,0,0.01
2013-5-31,58,46,32,-100,-100,-100,0,0,100,0.00,40.00,0,-999,0,0.00